Pagina principale
METAR-TAF:

METAR-TAF

Aeroporti :

Pell City, Alabama, Stati Uniti

latitudine: 33-33-32N, longitudine: 086-14-57W, altezza: 148 m

Osservazione

Il bollettino è stato emesso 23 minuti fa, alle 14:15 UTC
Vento 7 kt da nord
Temperature 7°C
Umidità 93%
Pressione 1025 hPa
Visibilità: 16.1 km
Cielo coperto ad un'altezza di 1600 ft

METAR: KPLR 181415Z AUTO 01007KT 10SM OVC016 07/06 A3026 RMK A01

Ora: 08:38 (14:38 UTC)


TAF: mancante

Osservazioni e previsioni meteorologiche di più di 4000 aeroporti (messaggi METAR e TAF).

Le stazioni disponibili sono rappresentate dai dischi gialli e rossi sulla carta.

Puntare il mouse per vedere il nome della stazione.

Clicca sopra per visualizzare le osservazioni e previsioni meteorologiche.

Per cambiare la mappa : fare clic sui pulsanti verdi con una croce nera per ingrandire, il pulsante verde con un trattino per diminuire, o sulla freccia verde per le mappe adiacenti.


METAR-TAF: